Time,TemperatureF,DewpointF,PressureIn,WindDirection,WindDirectionDegrees,WindSpeedMPH,WindSpeedGustMPH,Humidity,HourlyPrecipIn,Conditions,Clouds,dailyrainin,SoftwareType,DateUTC
2013-01-07 00:00:00,31.5,26.9,30.32,SW,224,0.0,2.0,83,0.00,,---,0.00,VWS V14.01,2013-01-07 06:00:00,
2013-01-07 00:01:00,31.5,26.9,30.32,SW,224,0.0,0.0,83,0.00,,---,0.00,VWS V14.01,2013-01-07 06:01:00,
2013-01-07 00:06:00,31.4,26.8,30.33,SW,224,0.0,1.0,83,0.00,,---,0.00,VWS V14.01,2013-01-07 06:06:00,
2013-01-07 00:11:00,31.3,26.5,30.33,SW,228,0.0,1.0,82,0.00,,---,0.00,VWS V14.01,2013-01-07 06:11:00,
2013-01-07 00:16:00,31.3,26.5,30.33,WNW,301,1.0,1.0,82,0.00,,---,0.00,VWS V14.01,2013-01-07 06:16:00,
2013-01-07 00:21:00,31.3,26.5,30.33,WNW,293,1.0,1.0,82,0.00,,---,0.00,VWS V14.01,2013-01-07 06:21:00,
2013-01-07 00:26:00,31.4,26.5,30.33,West,277,1.0,1.0,82,0.00,,---,0.00,VWS V14.01,2013-01-07 06:26:00,
2013-01-07 00:30:00,31.4,26.2,30.33,WSW,255,0.0,1.0,81,0.00,,---,0.00,VWS V14.01,2013-01-07 06:30:00,
2013-01-07 00:31:00,31.5,26.4,30.33,WSW,255,0.0,1.0,81,0.00,,---,0.00,VWS V14.01,2013-01-07 06:31:00,
2013-01-07 00:36:00,31.5,26.4,30.33,WSW,243,0.0,2.0,81,0.00,,---,0.00,VWS V14.01,2013-01-07 06:36:00,
2013-01-07 00:41:00,31.4,26.2,30.33,WSW,243,0.0,2.0,81,0.00,,---,0.00,VWS V14.01,2013-01-07 06:41:00,
2013-01-07 00:46:00,31.4,26.2,30.34,West,274,0.0,2.0,81,0.00,,---,0.00,VWS V14.01,2013-01-07 06:46:00,
2013-01-07 00:51:00,31.2,26.1,30.34,West,274,0.0,2.0,81,0.00,,---,0.00,VWS V14.01,2013-01-07 06:51:00,
2013-01-07 00:56:00,31.0,25.9,30.34,West,274,0.0,2.0,81,0.00,,---,0.00,VWS V14.01,2013-01-07 06:56:00,
2013-01-07 01:00:00,30.9,25.8,30.34,West,274,0.0,2.0,81,0.00,,---,0.00,VWS V14.01,2013-01-07 07:00:00,
2013-01-07 01:01:00,30.9,25.8,30.34,West,274,0.0,0.0,81,0.00,,---,0.00,VWS V14.01,2013-01-07 07:01:00,
2013-01-07 01:06:00,30.9,25.8,30.35,WSW,252,1.0,1.0,81,0.00,,---,0.00,VWS V14.01,2013-01-07 07:06:00,
2013-01-07 01:11:00,31.1,25.7,30.35,West,262,0.0,3.0,80,0.00,,---,0.00,VWS V14.01,2013-01-07 07:11:00,
2013-01-07 01:16:00,31.3,25.6,30.36,West,273,1.0,3.0,79,0.00,,---,0.00,VWS V14.01,2013-01-07 07:16:00,
2013-01-07 01:21:00,31.6,25.9,30.36,WNW,291,4.0,4.0,79,0.00,,---,0.00,VWS V14.01,2013-01-07 07:21:00,
2013-01-07 01:26:00,31.7,25.6,30.36,WNW,284,0.0,4.0,78,0.00,,---,0.00,VWS V14.01,2013-01-07 07:26:00,
2013-01-07 01:30:00,31.7,25.6,30.36,WNW,283,0.0,4.0,78,0.00,,---,0.00,VWS V14.01,2013-01-07 07:30:00,
2013-01-07 01:31:00,31.7,25.6,30.36,NW,314,0.0,1.0,78,0.00,,---,0.00,VWS V14.01,2013-01-07 07:31:00,
2013-01-07 01:36:00,31.6,25.5,30.36,NW,313,0.0,1.0,78,0.00,,---,0.00,VWS V14.01,2013-01-07 07:36:00,
2013-01-07 01:41:00,31.5,25.4,30.36,NW,314,0.0,1.0,78,0.00,,---,0.00,VWS V14.01,2013-01-07 07:41:00,
2013-01-07 01:46:00,31.4,25.6,30.36,NW,314,0.0,1.0,79,0.00,,---,0.00,VWS V14.01,2013-01-07 07:46:00,
2013-01-07 01:51:00,31.4,26.0,30.36,NW,314,0.0,1.0,80,0.00,,---,0.00,VWS V14.01,2013-01-07 07:51:00,
2013-01-07 01:56:00,31.4,25.6,30.36,NW,314,0.0,1.0,79,0.00,,---,0.00,VWS V14.01,2013-01-07 07:56:00,
2013-01-07 02:00:00,31.3,25.6,30.36,NW,313,0.0,1.0,79,0.00,,---,0.00,VWS V14.01,2013-01-07 08:00:00,
2013-01-07 02:01:00,31.2,25.8,30.36,NW,314,0.0,0.0,80,0.00,,---,0.00,VWS V14.01,2013-01-07 08:01:00,
2013-01-07 02:06:00,31.1,26.0,30.36,NW,314,0.0,0.0,81,0.00,,---,0.00,VWS V14.01,2013-01-07 08:06:00,
2013-01-07 02:11:00,30.9,25.8,30.36,NW,314,0.0,0.0,81,0.00,,---,0.00,VWS V14.01,2013-01-07 08:11:00,
2013-01-07 02:16:00,30.8,25.7,30.36,NW,314,0.0,0.0,81,0.00,,---,0.00,VWS V14.01,2013-01-07 08:16:00,
2013-01-07 02:21:00,30.7,26.2,30.36,NW,314,0.0,0.0,83,0.00,,---,0.00,VWS V14.01,2013-01-07 08:21:00,
2013-01-07 02:26:00,30.5,26.0,30.36,NW,314,0.0,0.0,83,0.00,,---,0.00,VWS V14.01,2013-01-07 08:26:00,
2013-01-07 02:30:00,30.5,26.2,30.36,NW,314,0.0,0.0,84,0.00,,---,0.00,VWS V14.01,2013-01-07 08:30:00,
2013-01-07 02:31:00,30.6,26.4,30.36,NW,308,0.0,0.0,84,0.00,,---,0.00,VWS V14.01,2013-01-07 08:31:00,
2013-01-07 02:36:00,30.4,26.1,30.36,NW,308,0.0,0.0,84,0.00,,---,0.00,VWS V14.01,2013-01-07 08:36:00,
2013-01-07 02:41:00,30.4,26.1,30.36,NW,307,0.0,0.0,84,0.00,,---,0.00,VWS V14.01,2013-01-07 08:41:00,
2013-01-07 02:46:00,30.3,26.1,30.36,NW,307,0.0,0.0,84,0.00,,---,0.00,VWS V14.01,2013-01-07 08:46:00,
2013-01-07 02:51:00,30.2,26.2,30.36,NW,307,0.0,0.0,85,0.00,,---,0.00,VWS V14.01,2013-01-07 08:51:00,
2013-01-07 02:56:00,30.2,26.5,30.37,NW,307,0.0,0.0,86,0.00,,---,0.00,VWS V14.01,2013-01-07 08:56:00,
2013-01-07 03:00:00,30.2,26.8,30.37,NW,307,0.0,0.0,87,0.00,,---,0.00,VWS V14.01,2013-01-07 09:00:00,
2013-01-07 03:01:00,30.4,27.0,30.37,NW,307,0.0,0.0,87,0.00,,---,0.00,VWS V14.01,2013-01-07 09:01:00,
2013-01-07 03:06:00,30.4,27.3,30.37,NW,308,0.0,0.0,88,0.00,,---,0.00,VWS V14.01,2013-01-07 09:06:00,
2013-01-07 03:11:00,30.4,27.3,30.37,NW,308,0.0,0.0,88,0.00,,---,0.00,VWS V14.01,2013-01-07 09:11:00,
2013-01-07 03:16:00,30.6,27.5,30.37,West,261,0.0,1.0,88,0.00,,---,0.00,VWS V14.01,2013-01-07 09:16:00,
2013-01-07 03:21:00,30.8,27.7,30.37,West,269,1.0,1.0,88,0.00,,---,0.00,VWS V14.01,2013-01-07 09:21:00,
2013-01-07 03:26:00,30.8,27.4,30.37,West,269,0.0,1.0,87,0.00,,---,0.00,VWS V14.01,2013-01-07 09:26:00,
2013-01-07 03:30:00,30.8,27.4,30.37,SW,233,0.0,1.0,87,0.00,,---,0.00,VWS V14.01,2013-01-07 09:30:00,
2013-01-07 03:31:00,30.8,27.4,30.37,SW,233,0.0,0.0,87,0.00,,---,0.00,VWS V14.01,2013-01-07 09:31:00,
2013-01-07 03:36:00,30.8,27.4,30.38,SW,232,0.0,0.0,87,0.00,,---,0.00,VWS V14.01,2013-01-07 09:36:00,
2013-01-07 03:41:00,30.8,27.4,30.38,West,277,1.0,1.0,87,0.00,,---,0.00,VWS V14.01,2013-01-07 09:41:00,
2013-01-07 03:46:00,30.9,27.2,30.38,West,261,1.0,2.0,86,0.00,,---,0.00,VWS V14.01,2013-01-07 09:46:00,
2013-01-07 03:51:00,31.0,27.0,30.38,West,278,1.0,2.0,85,0.00,,---,0.00,VWS V14.01,2013-01-07 09:51:00,
2013-01-07 03:56:00,31.1,27.1,30.39,WSW,243,0.0,2.0,85,0.00,,---,0.00,VWS V14.01,2013-01-07 09:56:00,
2013-01-07 04:00:00,31.1,27.1,30.39,WSW,243,1.0,2.0,85,0.00,,---,0.00,VWS V14.01,2013-01-07 10:00:00,
2013-01-07 04:01:00,31.1,27.1,30.39,WSW,247,1.0,1.0,85,0.00,,---,0.00,VWS V14.01,2013-01-07 10:01:00,
2013-01-07 04:06:00,31.0,27.0,30.39,SW,233,0.0,2.0,85,0.00,,---,0.00,VWS V14.01,2013-01-07 10:06:00,
2013-01-07 04:11:00,31.0,27.0,30.39,WSW,250,0.0,2.0,85,0.00,,---,0.00,VWS V14.01,2013-01-07 10:11:00,
2013-01-07 04:16:00,31.2,26.1,30.40,West,280,1.0,4.0,81,0.00,,---,0.00,VWS V14.01,2013-01-07 10:16:00,
2013-01-07 04:21:00,31.5,26.0,30.39,WSW,243,0.0,4.0,80,0.00,,---,0.00,VWS V14.01,2013-01-07 10:21:00,
2013-01-07 04:26:00,31.5,26.0,30.40,West,271,1.0,4.0,80,0.00,,---,0.00,VWS V14.01,2013-01-07 10:26:00,
2013-01-07 04:30:00,31.5,26.0,30.39,WNW,284,0.0,4.0,80,0.00,,---,0.00,VWS V14.01,2013-01-07 10:30:00,
2013-01-07 04:31:00,31.5,26.0,30.40,WSW,250,0.0,2.0,80,0.00,,---,0.00,VWS V14.01,2013-01-07 10:31:00,
2013-01-07 04:36:00,31.4,26.0,30.40,West,264,0.0,2.0,80,0.00,,---,0.00,VWS V14.01,2013-01-07 10:36:00,
2013-01-07 04:41:00,31.3,25.9,30.39,West,264,0.0,2.0,80,0.00,,---,0.00,VWS V14.01,2013-01-07 10:41:00,
2013-01-07 04:46:00,31.2,26.1,30.39,West,269,0.0,2.0,81,0.00,,---,0.00,VWS V14.01,2013-01-07 10:46:00,
2013-01-07 04:51:00,31.1,25.7,30.39,West,260,0.0,2.0,80,0.00,,---,0.00,VWS V14.01,2013-01-07 10:51:00,
2013-01-07 04:56:00,31.1,25.7,30.40,WSW,252,0.0,2.0,80,0.00,,---,0.00,VWS V14.01,2013-01-07 10:56:00,
2013-01-07 05:00:00,31.0,25.6,30.40,WSW,243,0.0,2.0,80,0.00,,---,0.00,VWS V14.01,2013-01-07 11:00:00,
2013-01-07 05:01:00,31.0,25.3,30.40,West,278,1.0,2.0,79,0.00,,---,0.00,VWS V14.01,2013-01-07 11:01:00,
2013-01-07 05:06:00,31.2,25.5,30.40,WSW,238,0.0,3.0,79,0.00,,---,0.00,VWS V14.01,2013-01-07 11:06:00,
2013-01-07 05:11:00,31.1,25.4,30.40,SW,233,0.0,3.0,79,0.00,,---,0.00,VWS V14.01,2013-01-07 11:11:00,
2013-01-07 05:16:00,31.0,25.3,30.40,WSW,243,0.0,3.0,79,0.00,,---,0.00,VWS V14.01,2013-01-07 11:16:00,
2013-01-07 05:21:00,30.9,25.2,30.40,WSW,256,0.0,3.0,79,0.00,,---,0.00,VWS V14.01,2013-01-07 11:21:00,
2013-01-07 05:26:00,30.7,25.0,30.40,WSW,256,0.0,3.0,79,0.00,,---,0.00,VWS V14.01,2013-01-07 11:26:00,
2013-01-07 05:30:00,30.6,25.2,30.40,WSW,256,0.0,3.0,80,0.00,,---,0.00,VWS V14.01,2013-01-07 11:30:00,
2013-01-07 05:31:00,30.4,25.0,30.40,WSW,256,0.0,0.0,80,0.00,,---,0.00,VWS V14.01,2013-01-07 11:31:00,
2013-01-07 05:36:00,30.0,24.6,30.40,WSW,256,0.0,0.0,80,0.00,,---,0.00,VWS V14.01,2013-01-07 11:36:00,
2013-01-07 05:41:00,29.6,24.5,30.40,WSW,256,0.0,0.0,81,0.00,,---,0.00,VWS V14.01,2013-01-07 11:41:00,
2013-01-07 05:46:00,29.1,24.3,30.40,WSW,256,0.0,0.0,82,0.00,,---,0.00,VWS V14.01,2013-01-07 11:46:00,
2013-01-07 05:51:00,28.7,23.9,30.40,WSW,256,0.0,0.0,82,0.00,,---,0.00,VWS V14.01,2013-01-07 11:51:00,
2013-01-07 05:56:00,28.4,23.6,30.40,WSW,256,0.0,0.0,82,0.00,,---,0.00,VWS V14.01,2013-01-07 11:56:00,
2013-01-07 06:00:00,28.2,23.4,30.41,WSW,256,0.0,0.0,82,0.00,,---,0.00,VWS V14.01,2013-01-07 12:00:00,
2013-01-07 06:01:00,27.9,23.4,30.41,WSW,256,0.0,0.0,83,0.00,,---,0.00,VWS V14.01,2013-01-07 12:01:00,
2013-01-07 06:06:00,27.5,23.3,30.41,WSW,256,0.0,0.0,84,0.00,,---,0.00,VWS V14.01,2013-01-07 12:06:00,
2013-01-07 06:11:00,27.2,23.0,30.41,WSW,256,0.0,0.0,84,0.00,,---,0.00,VWS V14.01,2013-01-07 12:11:00,
2013-01-07 06:16:00,27.0,23.1,30.41,WSW,256,0.0,0.0,85,0.00,,---,0.00,VWS V14.01,2013-01-07 12:16:00,
2013-01-07 06:21:00,26.5,22.6,30.41,WSW,256,0.0,0.0,85,0.00,,---,0.00,VWS V14.01,2013-01-07 12:21:00,
2013-01-07 06:26:00,26.1,22.5,30.42,WSW,256,0.0,0.0,86,0.00,,---,0.00,VWS V14.01,2013-01-07 12:26:00,
2013-01-07 06:30:00,26.0,22.4,30.42,WSW,256,0.0,0.0,86,0.00,,---,0.00,VWS V14.01,2013-01-07 12:30:00,
2013-01-07 06:31:00,26.1,22.8,30.42,WSW,256,0.0,0.0,87,0.00,,---,0.00,VWS V14.01,2013-01-07 12:31:00,
2013-01-07 06:36:00,25.6,22.0,30.42,WSW,256,0.0,0.0,86,0.00,,---,0.00,VWS V14.01,2013-01-07 12:36:00,
2013-01-07 06:41:00,25.1,21.8,30.42,WSW,256,0.0,0.0,87,0.00,,---,0.00,VWS V14.01,2013-01-07 12:41:00,
2013-01-07 06:46:00,24.7,21.7,30.42,WSW,256,0.0,0.0,88,0.00,,---,0.00,VWS V14.01,2013-01-07 12:46:00,
2013-01-07 06:51:00,24.0,20.7,30.42,WSW,256,0.0,0.0,87,0.00,,---,0.00,VWS V14.01,2013-01-07 12:51:00,
2013-01-07 06:56:00,23.3,20.3,30.43,WSW,256,0.0,0.0,88,0.00,,---,0.00,VWS V14.01,2013-01-07 12:56:00,
2013-01-07 07:00:00,23.1,20.1,30.42,WSW,256,0.0,0.0,88,0.00,,---,0.00,VWS V14.01,2013-01-07 13:00:00,
2013-01-07 07:01:00,22.7,19.7,30.42,WSW,256,0.0,0.0,88,0.00,,---,0.00,VWS V14.01,2013-01-07 13:01:00,
2013-01-07 07:06:00,22.5,20.0,30.43,SW,221,0.0,1.0,90,0.00,,---,0.00,VWS V14.01,2013-01-07 13:06:00,
2013-01-07 07:11:00,23.2,21.2,30.43,SW,221,0.0,1.0,92,0.00,,---,0.00,VWS V14.01,2013-01-07 13:11:00,
2013-01-07 07:16:00,23.5,21.5,30.43,WSW,250,0.0,1.0,92,0.00,,---,0.00,VWS V14.01,2013-01-07 13:16:00,
2013-01-07 07:21:00,23.5,21.3,30.43,WSW,250,0.0,1.0,91,0.00,,---,0.00,VWS V14.01,2013-01-07 13:21:00,
2013-01-07 07:26:00,23.4,21.4,30.43,WSW,250,0.0,1.0,92,0.00,,---,0.00,VWS V14.01,2013-01-07 13:26:00,
2013-01-07 07:30:00,23.4,21.4,30.44,WSW,250,0.0,1.0,92,0.00,,---,0.00,VWS V14.01,2013-01-07 13:30:00,
2013-01-07 07:31:00,23.4,21.4,30.44,WSW,250,0.0,0.0,92,0.00,,---,0.00,VWS V14.01,2013-01-07 13:31:00,
2013-01-07 07:36:00,23.9,22.2,30.44,West,267,0.0,1.0,93,0.00,,---,0.00,VWS V14.01,2013-01-07 13:36:00,
2013-01-07 07:41:00,24.3,22.3,30.44,West,266,0.0,1.0,92,0.00,,---,0.00,VWS V14.01,2013-01-07 13:41:00,
2013-01-07 07:46:00,24.8,22.8,30.44,West,267,0.0,1.0,92,0.00,,---,0.00,VWS V14.01,2013-01-07 13:46:00,
2013-01-07 07:51:00,25.2,23.0,30.45,West,267,0.0,1.0,91,0.00,,---,0.00,VWS V14.01,2013-01-07 13:51:00,
2013-01-07 07:56:00,25.7,23.2,30.45,WSW,238,0.0,2.0,90,0.00,,---,0.00,VWS V14.01,2013-01-07 13:56:00,
2013-01-07 08:00:00,25.9,23.4,30.45,SW,229,2.0,3.0,90,0.00,,---,0.00,VWS V14.01,2013-01-07 14:00:00,
2013-01-07 08:01:00,26.5,24.0,30.45,West,263,1.0,4.0,90,0.00,,---,0.00,VWS V14.01,2013-01-07 14:01:00,
2013-01-07 08:06:00,27.2,24.4,30.45,SW,229,2.0,6.0,89,0.00,,---,0.00,VWS V14.01,2013-01-07 14:06:00,
2013-01-07 08:11:00,27.9,24.8,30.45,WSW,246,2.0,6.0,88,0.00,,---,0.00,VWS V14.01,2013-01-07 14:11:00,
2013-01-07 08:16:00,28.5,25.1,30.45,SSW,211,2.0,6.0,87,0.00,,---,0.00,VWS V14.01,2013-01-07 14:16:00,
2013-01-07 08:21:00,29.1,25.4,30.45,SW,215,3.0,6.0,86,0.00,,---,0.00,VWS V14.01,2013-01-07 14:21:00,
2013-01-07 08:26:00,29.5,25.6,30.45,SW,229,1.0,8.0,85,0.00,,---,0.00,VWS V14.01,2013-01-07 14:26:00,
2013-01-07 08:30:00,29.6,25.6,30.45,West,267,5.0,8.0,85,0.00,,---,0.00,VWS V14.01,2013-01-07 14:30:00,
2013-01-07 08:31:00,29.8,25.9,30.45,SW,232,3.0,6.0,85,0.00,,---,0.00,VWS V14.01,2013-01-07 14:31:00,
2013-01-07 08:36:00,30.1,26.1,30.45,SW,219,4.0,6.0,85,0.00,,---,0.00,VWS V14.01,2013-01-07 14:36:00,
2013-01-07 08:41:00,30.2,26.0,30.45,WSW,255,1.0,6.0,84,0.00,,---,0.00,VWS V14.01,2013-01-07 14:41:00,
2013-01-07 08:46:00,30.3,26.1,30.45,WSW,256,4.0,6.0,84,0.00,,---,0.00,VWS V14.01,2013-01-07 14:46:00,
2013-01-07 08:51:00,30.4,26.1,30.45,WSW,238,7.0,7.0,84,0.00,,---,0.00,VWS V14.01,2013-01-07 14:51:00,
2013-01-07 08:56:00,30.5,26.2,30.45,WSW,238,5.0,9.0,84,0.00,,---,0.00,VWS V14.01,2013-01-07 14:56:00,
2013-01-07 09:00:00,30.6,26.1,30.45,SW,232,3.0,9.0,83,0.00,,---,0.00,VWS V14.01,2013-01-07 15:00:00,
2013-01-07 09:01:00,30.6,26.1,30.45,West,278,0.0,4.0,83,0.00,,---,0.00,VWS V14.01,2013-01-07 15:01:00,
2013-01-07 09:06:00,30.8,26.3,30.45,WSW,253,1.0,4.0,83,0.00,,---,0.00,VWS V14.01,2013-01-07 15:06:00,
2013-01-07 09:11:00,31.0,26.2,30.45,SW,231,3.0,6.0,82,0.00,,---,0.00,VWS V14.01,2013-01-07 15:11:00,
2013-01-07 09:16:00,31.2,26.4,30.45,SW,222,3.0,6.0,82,0.00,,---,0.00,VWS V14.01,2013-01-07 15:16:00,
2013-01-07 09:21:00,31.4,26.2,30.45,WSW,242,4.0,6.0,81,0.00,,---,0.00,VWS V14.01,2013-01-07 15:21:00,
2013-01-07 09:26:00,31.5,26.0,30.45,SW,236,4.0,6.0,80,0.00,,---,0.00,VWS V14.01,2013-01-07 15:26:00,
2013-01-07 09:30:00,31.6,26.1,30.45,SW,228,3.0,6.0,80,0.00,,---,0.00,VWS V14.01,2013-01-07 15:30:00,
2013-01-07 09:31:00,31.8,26.4,30.45,SW,232,4.0,5.0,80,0.00,,---,0.00,VWS V14.01,2013-01-07 15:31:00,
2013-01-07 09:36:00,32.3,26.5,30.45,SW,228,4.0,5.0,79,0.00,,---,0.00,VWS V14.01,2013-01-07 15:36:00,
2013-01-07 09:41:00,32.5,26.7,30.45,WSW,238,3.0,6.0,79,0.00,,---,0.00,VWS V14.01,2013-01-07 15:41:00,
2013-01-07 09:46:00,32.9,26.8,30.45,SW,232,3.0,6.0,78,0.00,,---,0.00,VWS V14.01,2013-01-07 15:46:00,
2013-01-07 09:51:00,33.1,26.0,30.45,SSW,201,2.0,11.0,75,0.00,,---,0.00,VWS V14.01,2013-01-07 15:51:00,
2013-01-07 09:56:00,33.2,26.1,30.45,WSW,243,6.0,12.0,75,0.00,,---,0.00,VWS V14.01,2013-01-07 15:56:00,
2013-01-07 10:00:00,33.2,26.1,30.44,West,269,2.0,12.0,75,0.00,,---,0.00,VWS V14.01,2013-01-07 16:00:00,
2013-01-07 10:01:00,33.1,26.0,30.44,WSW,238,4.0,8.0,75,0.00,,---,0.00,VWS V14.01,2013-01-07 16:01:00,
2013-01-07 10:06:00,33.3,26.2,30.44,SW,225,5.0,10.0,75,0.00,,---,0.00,VWS V14.01,2013-01-07 16:06:00,
2013-01-07 10:11:00,33.7,26.6,30.44,WSW,256,6.0,10.0,75,0.00,,---,0.00,VWS V14.01,2013-01-07 16:11:00,
2013-01-07 10:16:00,33.9,26.5,30.43,WSW,255,3.0,10.0,74,0.00,,---,0.00,VWS V14.01,2013-01-07 16:16:00,
2013-01-07 10:21:00,33.9,26.5,30.43,SW,222,7.0,11.0,74,0.00,,---,0.00,VWS V14.01,2013-01-07 16:21:00,
2013-01-07 10:26:00,34.0,26.3,30.43,WSW,248,4.0,11.0,73,0.00,,---,0.00,VWS V14.01,2013-01-07 16:26:00,
2013-01-07 10:30:00,34.0,26.3,30.43,WSW,244,5.0,11.0,73,0.00,,---,0.00,VWS V14.01,2013-01-07 16:30:00,
2013-01-07 10:31:00,34.1,26.4,30.44,SW,230,5.0,7.0,73,0.00,,---,0.00,VWS V14.01,2013-01-07 16:31:00,
2013-01-07 10:36:00,34.2,26.5,30.43,SW,219,5.0,7.0,73,0.00,,---,0.00,VWS V14.01,2013-01-07 16:36:00,
2013-01-07 10:41:00,34.3,26.6,30.43,West,263,2.0,8.0,73,0.00,,---,0.00,VWS V14.01,2013-01-07 16:41:00,
2013-01-07 10:46:00,34.5,26.4,30.43,WSW,253,4.0,8.0,72,0.00,,---,0.00,VWS V14.01,2013-01-07 16:46:00,
2013-01-07 10:51:00,34.5,26.4,30.42,SW,221,2.0,10.0,72,0.00,,---,0.00,VWS V14.01,2013-01-07 16:51:00,
2013-01-07 10:56:00,34.8,26.7,30.42,SSE,163,3.0,11.0,72,0.00,,---,0.00,VWS V14.01,2013-01-07 16:56:00,
2013-01-07 11:00:00,35.0,26.9,30.42,SW,226,5.0,11.0,72,0.00,,---,0.00,VWS V14.01,2013-01-07 17:00:00,
2013-01-07 11:01:00,35.0,26.9,30.41,SW,231,8.0,8.0,72,0.00,,---,0.00,VWS V14.01,2013-01-07 17:01:00,
2013-01-07 11:06:00,34.9,26.5,30.41,SW,225,5.0,9.0,71,0.00,,---,0.00,VWS V14.01,2013-01-07 17:06:00,
2013-01-07 11:11:00,34.6,26.5,30.41,South,181,3.0,11.0,72,0.00,,---,0.00,VWS V14.01,2013-01-07 17:11:00,
2013-01-07 11:16:00,34.7,26.6,30.40,South,180,4.0,11.0,72,0.00,,---,0.00,VWS V14.01,2013-01-07 17:16:00,
2013-01-07 11:21:00,34.7,26.6,30.40,South,181,4.0,12.0,72,0.00,,---,0.00,VWS V14.01,2013-01-07 17:21:00,
2013-01-07 11:26:00,34.8,26.4,30.40,SW,224,3.0,12.0,71,0.00,,---,0.00,VWS V14.01,2013-01-07 17:26:00,
2013-01-07 11:30:00,34.7,26.3,30.40,SW,219,3.0,12.0,71,0.00,,---,0.00,VWS V14.01,2013-01-07 17:30:00,
2013-01-07 11:31:00,34.6,26.5,30.40,SW,232,3.0,5.0,72,0.00,,---,0.00,VWS V14.01,2013-01-07 17:31:00,
2013-01-07 11:36:00,34.7,26.6,30.39,South,191,3.0,10.0,72,0.00,,---,0.00,VWS V14.01,2013-01-07 17:36:00,
2013-01-07 11:41:00,34.9,26.8,30.39,South,170,2.0,10.0,72,0.00,,---,0.00,VWS V14.01,2013-01-07 17:41:00,
2013-01-07 11:46:00,34.9,26.5,30.38,SW,225,2.0,10.0,71,0.00,,---,0.00,VWS V14.01,2013-01-07 17:46:00,
2013-01-07 11:51:00,34.9,26.5,30.38,SW,214,5.0,11.0,71,0.00,,---,0.00,VWS V14.01,2013-01-07 17:51:00,
2013-01-07 11:56:00,34.9,26.5,30.38,SW,232,5.0,11.0,71,0.00,,---,0.00,VWS V14.01,2013-01-07 17:56:00,
2013-01-07 12:00:00,34.9,26.8,30.38,South,184,2.0,11.0,72,0.00,,---,0.00,VWS V14.01,2013-01-07 18:00:00,
2013-01-07 12:01:00,34.8,26.7,30.38,SW,217,3.0,10.0,72,0.00,,---,0.00,VWS V14.01,2013-01-07 18:01:00,
2013-01-07 12:06:00,34.4,26.3,30.38,SW,215,5.0,10.0,72,0.00,,---,0.00,VWS V14.01,2013-01-07 18:06:00,
2013-01-07 12:11:00,34.5,26.4,30.38,SW,226,5.0,10.0,72,0.00,,---,0.00,VWS V14.01,2013-01-07 18:11:00,
2013-01-07 12:16:00,34.6,26.5,30.37,SSW,197,2.0,12.0,72,0.00,,---,0.00,VWS V14.01,2013-01-07 18:16:00,
2013-01-07 12:21:00,34.4,26.3,30.37,WSW,243,7.0,13.0,72,0.00,,---,0.00,VWS V14.01,2013-01-07 18:21:00,
2013-01-07 12:26:00,34.4,26.3,30.37,WSW,240,4.0,13.0,72,0.00,,---,0.00,VWS V14.01,2013-01-07 18:26:00,
2013-01-07 12:30:00,34.4,26.7,30.37,SSW,207,5.0,13.0,73,0.00,,---,0.00,VWS V14.01,2013-01-07 18:30:00,
2013-01-07 12:31:00,34.6,26.5,30.37,SSW,204,3.0,7.0,72,0.00,,---,0.00,VWS V14.01,2013-01-07 18:31:00,
2013-01-07 12:36:00,34.9,26.8,30.37,SSE,160,5.0,7.0,72,0.00,,---,0.00,VWS V14.01,2013-01-07 18:36:00,
2013-01-07 12:41:00,35.0,26.6,30.37,SSW,204,2.0,8.0,71,0.00,,---,0.00,VWS V14.01,2013-01-07 18:41:00,
2013-01-07 12:46:00,35.1,26.7,30.36,SW,236,5.0,9.0,71,0.00,,---,0.00,VWS V14.01,2013-01-07 18:46:00,
2013-01-07 12:51:00,34.9,26.5,30.36,SW,218,4.0,13.0,71,0.00,,---,0.00,VWS V14.01,2013-01-07 18:51:00,
2013-01-07 12:56:00,34.6,26.5,30.36,WSW,257,4.0,13.0,72,0.00,,---,0.00,VWS V14.01,2013-01-07 18:56:00,
2013-01-07 13:00:00,34.6,26.5,30.36,SW,219,8.0,13.0,72,0.00,,---,0.00,VWS V14.01,2013-01-07 19:00:00,
2013-01-07 13:01:00,34.6,26.5,30.36,SSW,197,7.0,11.0,72,0.00,,---,0.00,VWS V14.01,2013-01-07 19:01:00,
2013-01-07 13:06:00,34.5,26.8,30.36,SW,218,2.0,11.0,73,0.00,,---,0.00,VWS V14.01,2013-01-07 19:06:00,
2013-01-07 13:11:00,34.6,26.9,30.35,SW,226,7.0,12.0,73,0.00,,---,0.00,VWS V14.01,2013-01-07 19:11:00,
2013-01-07 13:16:00,34.8,26.7,30.35,SSE,165,8.0,12.0,72,0.00,,---,0.00,VWS V14.01,2013-01-07 19:16:00,
2013-01-07 13:21:00,34.6,26.9,30.35,SW,214,6.0,13.0,73,0.00,,---,0.00,VWS V14.01,2013-01-07 19:21:00,
2013-01-07 13:26:00,34.7,26.6,30.35,WSW,250,7.0,13.0,72,0.00,,---,0.00,VWS V14.01,2013-01-07 19:26:00,
2013-01-07 13:30:00,34.6,26.5,30.35,SE,145,9.0,13.0,72,0.00,,---,0.00,VWS V14.01,2013-01-07 19:30:00,
2013-01-07 13:31:00,34.5,26.4,30.35,SE,135,3.0,9.0,72,0.00,,---,0.00,VWS V14.01,2013-01-07 19:31:00,
2013-01-07 13:36:00,34.7,27.0,30.35,SSE,150,4.0,13.0,73,0.00,,---,0.00,VWS V14.01,2013-01-07 19:36:00,
2013-01-07 13:41:00,34.7,27.0,30.34,SW,214,1.0,14.0,73,0.00,,---,0.00,VWS V14.01,2013-01-07 19:41:00,
2013-01-07 13:46:00,34.6,26.9,30.34,South,191,8.0,15.0,73,0.00,,---,0.00,VWS V14.01,2013-01-07 19:46:00,
2013-01-07 13:51:00,34.6,26.9,30.34,SSW,210,2.0,15.0,73,0.00,,---,0.00,VWS V14.01,2013-01-07 19:51:00,
2013-01-07 13:56:00,34.9,27.1,30.34,SW,221,7.0,15.0,73,0.00,,---,0.00,VWS V14.01,2013-01-07 19:56:00,
2013-01-07 14:00:00,34.8,26.7,30.33,SW,219,11.0,15.0,72,0.00,,---,0.00,VWS V14.01,2013-01-07 20:00:00,
2013-01-07 14:01:00,34.6,26.9,30.33,SW,226,2.0,11.0,73,0.00,,---,0.00,VWS V14.01,2013-01-07 20:01:00,
2013-01-07 14:06:00,34.7,27.0,30.33,South,189,4.0,11.0,73,0.00,,---,0.00,VWS V14.01,2013-01-07 20:06:00,
2013-01-07 14:11:00,34.9,27.1,30.33,SW,219,2.0,11.0,73,0.00,,---,0.00,VWS V14.01,2013-01-07 20:11:00,
2013-01-07 14:16:00,35.0,27.2,30.33,South,183,5.0,11.0,73,0.00,,---,0.00,VWS V14.01,2013-01-07 20:16:00,
2013-01-07 14:19:00,35.1,27.0,30.33,SW,221,2.0,11.0,72,0.00,,---,0.00,VWS V14.01,2013-01-07 20:19:00,
2013-01-07 14:24:00,35.2,27.1,30.33,SW,221,6.0,14.0,72,0.00,,---,0.00,VWS V14.01,2013-01-07 20:24:00,
2013-01-07 14:29:00,35.0,26.9,30.33,South,181,2.0,5.0,72,0.00,,---,0.00,VWS V14.01,2013-01-07 20:29:00,
2013-01-07 14:30:00,35.1,27.0,30.33,South,188,1.0,14.0,72,0.00,,---,0.00,VWS V14.01,2013-01-07 20:30:00,
2013-01-07 14:34:00,35.1,27.3,30.33,West,263,2.0,9.0,73,0.00,,---,0.00,VWS V14.01,2013-01-07 20:34:00,
2013-01-07 14:39:00,35.0,26.6,30.33,SW,222,9.0,14.0,71,0.00,,---,0.00,VWS V14.01,2013-01-07 20:39:00,
2013-01-07 14:44:00,34.9,26.5,30.32,WSW,252,4.0,14.0,71,0.00,,---,0.00,VWS V14.01,2013-01-07 20:44:00,
2013-01-07 14:49:00,34.8,26.4,30.32,SE,129,3.0,14.0,71,0.00,,---,0.00,VWS V14.01,2013-01-07 20:49:00,
2013-01-07 14:54:00,34.7,26.3,30.32,SW,217,5.0,14.0,71,0.00,,---,0.00,VWS V14.01,2013-01-07 20:54:00,
2013-01-07 14:59:00,34.6,26.5,30.32,SSW,203,4.0,8.0,72,0.00,,---,0.00,VWS V14.01,2013-01-07 20:59:00,
2013-01-07 15:00:00,34.6,26.5,30.32,SSE,167,8.0,14.0,72,0.00,,---,0.00,VWS V14.01,2013-01-07 21:00:00,
2013-01-07 15:04:00,34.5,26.1,30.32,SSE,167,4.0,14.0,71,0.00,,---,0.00,VWS V14.01,2013-01-07 21:04:00,
2013-01-07 15:09:00,34.2,26.1,30.31,SW,217,7.0,14.0,72,0.00,,---,0.00,VWS V14.01,2013-01-07 21:09:00,
2013-01-07 15:14:00,34.0,26.3,30.31,WSW,249,5.0,14.0,73,0.00,,---,0.00,VWS V14.01,2013-01-07 21:14:00,
2013-01-07 15:19:00,33.8,26.1,30.31,SW,231,7.0,14.0,73,0.00,,---,0.00,VWS V14.01,2013-01-07 21:19:00,
2013-01-07 15:24:00,33.7,26.0,30.31,SSW,207,3.0,14.0,73,0.00,,---,0.00,VWS V14.01,2013-01-07 21:24:00,
2013-01-07 15:29:00,33.5,26.1,30.31,SSW,211,4.0,6.0,74,0.00,,---,0.00,VWS V14.01,2013-01-07 21:29:00,
2013-01-07 15:30:00,33.5,26.1,30.31,SW,219,5.0,14.0,74,0.00,,---,0.00,VWS V14.01,2013-01-07 21:30:00,
2013-01-07 15:34:00,33.4,26.0,30.31,SSE,150,5.0,13.0,74,0.00,,---,0.00,VWS V14.01,2013-01-07 21:34:00,
2013-01-07 15:39:00,33.3,25.9,30.32,SW,217,3.0,13.0,74,0.00,,---,0.00,VWS V14.01,2013-01-07 21:39:00,
2013-01-07 15:44:00,33.2,26.1,30.31,SW,219,2.0,15.0,75,0.00,,---,0.00,VWS V14.01,2013-01-07 21:44:00,
2013-01-07 15:49:00,33.0,26.0,30.31,SSW,212,4.0,15.0,75,0.00,,---,0.00,VWS V14.01,2013-01-07 21:49:00,
2013-01-07 15:54:00,32.9,25.9,30.31,SW,214,6.0,15.0,75,0.00,,---,0.00,VWS V14.01,2013-01-07 21:54:00,
2013-01-07 15:59:00,32.7,25.7,30.31,SW,236,6.0,6.0,75,0.00,,---,0.00,VWS V14.01,2013-01-07 21:59:00,
2013-01-07 16:00:00,32.7,25.7,30.31,SW,233,4.0,16.0,75,0.00,,---,0.00,VWS V14.01,2013-01-07 22:00:00,
2013-01-07 16:04:00,32.5,25.8,30.31,SW,222,5.0,9.0,76,0.00,,---,0.00,VWS V14.01,2013-01-07 22:04:00,
2013-01-07 16:09:00,32.3,25.6,30.30,SSW,212,3.0,10.0,76,0.00,,---,0.00,VWS V14.01,2013-01-07 22:09:00,
2013-01-07 16:13:00,32.0,25.6,30.30,SSE,163,4.0,10.0,77,0.00,,---,0.00,VWS V14.01,2013-01-07 22:13:00,
2013-01-07 16:19:00,31.8,25.4,30.30,SSW,210,4.0,12.0,77,0.00,,---,0.00,VWS V14.01,2013-01-07 22:19:00,
2013-01-07 16:24:00,31.7,25.3,30.30,SSW,210,4.0,13.0,77,0.00,,---,0.00,VWS V14.01,2013-01-07 22:24:00,
2013-01-07 16:29:00,31.6,25.5,30.30,SW,214,3.0,3.0,78,0.00,,---,0.00,VWS V14.01,2013-01-07 22:29:00,
2013-01-07 16:30:00,31.6,25.5,30.30,SW,221,3.0,13.0,78,0.00,,---,0.00,VWS V14.01,2013-01-07 22:30:00,
2013-01-07 16:34:00,31.4,25.4,30.30,SW,222,3.0,8.0,78,0.00,,---,0.00,VWS V14.01,2013-01-07 22:34:00,
2013-01-07 16:38:00,31.2,25.1,30.29,South,191,4.0,8.0,78,0.00,,---,0.00,VWS V14.01,2013-01-07 22:38:00,
2013-01-07 16:43:00,31.0,25.3,30.30,SSW,212,3.0,8.0,79,0.00,,---,0.00,VWS V14.01,2013-01-07 22:43:00,
2013-01-07 16:48:00,30.8,25.1,30.30,SW,218,3.0,12.0,79,0.00,,---,0.00,VWS V14.01,2013-01-07 22:48:00,
2013-01-07 16:53:00,30.7,25.3,30.30,West,278,1.0,12.0,80,0.00,,---,0.00,VWS V14.01,2013-01-07 22:53:00,
2013-01-07 16:58:00,30.5,25.1,30.30,SW,217,7.0,7.0,80,0.00,,---,0.00,VWS V14.01,2013-01-07 22:58:00,
2013-01-07 17:00:00,30.5,25.1,30.30,SW,218,4.0,12.0,80,0.00,,---,0.00,VWS V14.01,2013-01-07 23:00:00,
2013-01-07 17:03:00,30.4,25.0,30.30,SSW,211,2.0,7.0,80,0.00,,---,0.00,VWS V14.01,2013-01-07 23:03:00,
2013-01-07 17:08:00,30.3,25.2,30.30,SSW,203,2.0,7.0,81,0.00,,---,0.00,VWS V14.01,2013-01-07 23:08:00,
2013-01-07 17:13:00,30.1,25.0,30.30,SSW,195,0.0,7.0,81,0.00,,---,0.00,VWS V14.01,2013-01-07 23:13:00,
2013-01-07 17:18:00,30.0,25.2,30.30,WSW,248,2.0,8.0,82,0.00,,---,0.00,VWS V14.01,2013-01-07 23:18:00,
2013-01-07 17:23:00,29.8,25.0,30.30,WSW,248,1.0,8.0,82,0.00,,---,0.00,VWS V14.01,2013-01-07 23:23:00,
2013-01-07 17:28:00,29.7,24.9,30.30,SSW,203,2.0,2.0,82,0.00,,---,0.00,VWS V14.01,2013-01-07 23:28:00,
2013-01-07 17:30:00,29.7,24.9,30.30,South,180,2.0,8.0,82,0.00,,---,0.00,VWS V14.01,2013-01-07 23:30:00,
2013-01-07 17:33:00,29.6,24.8,30.29,SSW,211,1.0,5.0,82,0.00,,---,0.00,VWS V14.01,2013-01-07 23:33:00,
2013-01-07 17:38:00,29.4,24.9,30.29,SSW,207,2.0,5.0,83,0.00,,---,0.00,VWS V14.01,2013-01-07 23:38:00,
2013-01-07 17:43:00,29.3,24.8,30.30,SSW,210,2.0,5.0,83,0.00,,---,0.00,VWS V14.01,2013-01-07 23:43:00,
2013-01-07 17:48:00,29.2,24.7,30.30,SW,217,2.0,6.0,83,0.00,,---,0.00,VWS V14.01,2013-01-07 23:48:00,
2013-01-07 17:53:00,29.0,24.5,30.30,South,191,3.0,6.0,83,0.00,,---,0.00,VWS V14.01,2013-01-07 23:53:00,
2013-01-07 17:58:00,29.0,24.8,30.29,NW,304,1.0,2.0,84,0.00,,---,0.00,VWS V14.01,2013-01-07 23:58:00,
2013-01-07 18:00:00,29.0,24.8,30.29,SW,218,2.0,9.0,84,0.00,,---,0.00,VWS V14.01,2013-01-08 00:00:00,
2013-01-07 18:03:00,29.0,24.8,30.30,SSW,200,3.0,6.0,84,0.00,,---,0.00,VWS V14.01,2013-01-08 00:03:00,
2013-01-07 18:08:00,28.9,24.7,30.30,SSE,158,1.0,6.0,84,0.00,,---,0.00,VWS V14.01,2013-01-08 00:08:00,
2013-01-07 18:13:00,28.8,24.6,30.29,SW,214,4.0,6.0,84,0.00,,---,0.00,VWS V14.01,2013-01-08 00:13:00,
2013-01-07 18:18:00,28.8,24.6,30.29,SSW,200,3.0,7.0,84,0.00,,---,0.00,VWS V14.01,2013-01-08 00:18:00,
2013-01-07 18:23:00,28.7,24.5,30.29,SSW,193,3.0,7.0,84,0.00,,---,0.00,VWS V14.01,2013-01-08 00:23:00,
2013-01-07 18:28:00,28.7,24.5,30.29,West,259,5.0,5.0,84,0.00,,---,0.00,VWS V14.01,2013-01-08 00:28:00,
2013-01-07 18:30:00,28.7,24.5,30.29,SW,217,0.0,7.0,84,0.00,,---,0.00,VWS V14.01,2013-01-08 00:30:00,
2013-01-07 18:33:00,28.6,24.4,30.28,SSE,151,1.0,8.0,84,0.00,,---,0.00,VWS V14.01,2013-01-08 00:33:00,
2013-01-07 18:38:00,28.4,24.2,30.28,SSW,210,1.0,8.0,84,0.00,,---,0.00,VWS V14.01,2013-01-08 00:38:00,
2013-01-07 18:43:00,28.2,24.3,30.28,SW,221,1.0,8.0,85,0.00,,---,0.00,VWS V14.01,2013-01-08 00:43:00,
2013-01-07 18:48:00,28.0,24.1,30.27,SW,222,2.0,8.0,85,0.00,,---,0.00,VWS V14.01,2013-01-08 00:48:00,
2013-01-07 18:53:00,27.9,24.0,30.27,South,176,3.0,8.0,85,0.00,,---,0.00,VWS V14.01,2013-01-08 00:53:00,
2013-01-07 18:58:00,27.9,24.0,30.27,South,191,3.0,3.0,85,0.00,,---,0.00,VWS V14.01,2013-01-08 00:58:00,
2013-01-07 19:00:00,27.9,24.0,30.27,SW,222,3.0,8.0,85,0.00,,---,0.00,VWS V14.01,2013-01-08 01:00:00,
2013-01-07 19:03:00,27.8,23.9,30.27,South,187,3.0,6.0,85,0.00,,---,0.00,VWS V14.01,2013-01-08 01:03:00,
2013-01-07 19:08:00,27.8,23.9,30.26,SW,222,0.0,6.0,85,0.00,,---,0.00,VWS V14.01,2013-01-08 01:08:00,
2013-01-07 19:13:00,27.7,24.1,30.26,SSW,200,0.0,6.0,86,0.00,,---,0.00,VWS V14.01,2013-01-08 01:13:00,
2013-01-07 19:18:00,27.5,23.9,30.26,SSW,205,8.0,8.0,86,0.00,,---,0.00,VWS V14.01,2013-01-08 01:18:00,
2013-01-07 19:23:00,27.7,24.1,30.26,SW,231,3.0,8.0,86,0.00,,---,0.00,VWS V14.01,2013-01-08 01:23:00,
2013-01-07 19:28:00,27.7,23.8,30.25,SSW,194,5.0,5.0,85,0.00,,---,0.00,VWS V14.01,2013-01-08 01:28:00,
2013-01-07 19:30:00,27.7,23.8,30.25,SSW,209,3.0,8.0,85,0.00,,---,0.00,VWS V14.01,2013-01-08 01:30:00,
2013-01-07 19:33:00,27.8,23.9,30.25,SSW,210,3.0,9.0,85,0.00,,---,0.00,VWS V14.01,2013-01-08 01:33:00,
2013-01-07 19:38:00,27.9,24.0,30.25,SW,215,2.0,9.0,85,0.00,,---,0.00,VWS V14.01,2013-01-08 01:38:00,
2013-01-07 19:43:00,27.8,23.9,30.25,WSW,240,3.0,9.0,85,0.00,,---,0.00,VWS V14.01,2013-01-08 01:43:00,
2013-01-07 19:48:00,27.8,23.9,30.25,South,191,4.0,9.0,85,0.00,,---,0.00,VWS V14.01,2013-01-08 01:48:00,
2013-01-07 19:53:00,27.7,23.8,30.25,SSW,210,3.0,9.0,85,0.00,,---,0.00,VWS V14.01,2013-01-08 01:53:00,
2013-01-07 19:58:00,27.4,23.5,30.25,SSW,211,3.0,4.0,85,0.00,,---,0.00,VWS V14.01,2013-01-08 01:58:00,
2013-01-07 20:00:00,27.4,23.5,30.25,SSW,205,4.0,9.0,85,0.00,,---,0.00,VWS V14.01,2013-01-08 02:00:00,
2013-01-07 20:03:00,27.2,23.6,30.25,South,177,1.0,5.0,86,0.00,,---,0.00,VWS V14.01,2013-01-08 02:03:00,
2013-01-07 20:08:00,27.1,23.5,30.25,SW,232,1.0,5.0,86,0.00,,---,0.00,VWS V14.01,2013-01-08 02:08:00,
2013-01-07 20:13:00,27.0,23.4,30.25,SW,236,7.0,7.0,86,0.00,,---,0.00,VWS V14.01,2013-01-08 02:13:00,
2013-01-07 20:18:00,26.9,23.3,30.25,SSW,200,1.0,7.0,86,0.00,,---,0.00,VWS V14.01,2013-01-08 02:18:00,
2013-01-07 20:23:00,26.8,23.5,30.26,SSW,205,1.0,7.0,87,0.00,,---,0.00,VWS V14.01,2013-01-08 02:23:00,
2013-01-07 20:28:00,26.6,23.0,30.25,SSW,210,0.0,0.0,86,0.00,,---,0.00,VWS V14.01,2013-01-08 02:28:00,
2013-01-07 20:30:00,26.7,23.1,30.26,SSW,210,0.0,7.0,86,0.00,,---,0.00,VWS V14.01,2013-01-08 02:30:00,
2013-01-07 20:33:00,26.5,23.2,30.26,SSW,204,1.0,4.0,87,0.00,,---,0.00,VWS V14.01,2013-01-08 02:33:00,
2013-01-07 20:38:00,26.3,23.0,30.26,SW,228,2.0,4.0,87,0.00,,---,0.00,VWS V14.01,2013-01-08 02:38:00,
2013-01-07 20:43:00,26.3,23.0,30.26,SW,225,0.0,4.0,87,0.00,,---,0.00,VWS V14.01,2013-01-08 02:43:00,
2013-01-07 20:48:00,26.1,22.8,30.26,SW,225,2.0,4.0,87,0.00,,---,0.00,VWS V14.01,2013-01-08 02:48:00,
2013-01-07 20:53:00,25.9,22.6,30.25,SSW,207,0.0,4.0,87,0.00,,---,0.00,VWS V14.01,2013-01-08 02:53:00,
2013-01-07 20:58:00,25.5,22.5,30.25,South,181,0.0,0.0,88,0.00,,---,0.00,VWS V14.01,2013-01-08 02:58:00,
2013-01-07 21:00:00,25.6,22.5,30.25,South,181,0.0,4.0,88,0.00,,---,0.00,VWS V14.01,2013-01-08 03:00:00,
2013-01-07 21:03:00,25.3,22.2,30.25,SSE,155,4.0,4.0,88,0.00,,---,0.00,VWS V14.01,2013-01-08 03:03:00,
2013-01-07 21:08:00,25.3,22.5,30.24,SE,131,2.0,5.0,89,0.00,,---,0.00,VWS V14.01,2013-01-08 03:08:00,
2013-01-07 21:13:00,25.4,22.6,30.24,WSW,249,2.0,5.0,89,0.00,,---,0.00,VWS V14.01,2013-01-08 03:13:00,
2013-01-07 21:18:00,25.5,22.7,30.24,South,191,1.0,5.0,89,0.00,,---,0.00,VWS V14.01,2013-01-08 03:18:00,
2013-01-07 21:23:00,25.6,22.8,30.23,SW,219,2.0,6.0,89,0.00,,---,0.00,VWS V14.01,2013-01-08 03:23:00,
2013-01-07 21:28:00,25.7,22.9,30.23,SSW,203,2.0,2.0,89,0.00,,---,0.00,VWS V14.01,2013-01-08 03:28:00,
2013-01-07 21:30:00,25.7,22.9,30.23,SW,217,2.0,6.0,89,0.00,,---,0.00,VWS V14.01,2013-01-08 03:30:00,
2013-01-07 21:33:00,25.7,22.6,30.23,SSW,207,2.0,4.0,88,0.00,,---,0.00,VWS V14.01,2013-01-08 03:33:00,
2013-01-07 21:38:00,25.6,22.5,30.23,SSE,151,0.0,5.0,88,0.00,,---,0.00,VWS V14.01,2013-01-08 03:38:00,
2013-01-07 21:43:00,25.5,22.5,30.23,SW,227,2.0,5.0,88,0.00,,---,0.00,VWS V14.01,2013-01-08 03:43:00,
2013-01-07 21:48:00,25.3,22.2,30.23,SSW,203,1.0,5.0,88,0.00,,---,0.00,VWS V14.01,2013-01-08 03:48:00,
2013-01-07 21:53:00,25.3,22.5,30.23,SSW,192,3.0,5.0,89,0.00,,---,0.00,VWS V14.01,2013-01-08 03:53:00,
2013-01-07 21:58:00,25.3,22.5,30.23,SE,132,2.0,2.0,89,0.00,,---,0.00,VWS V14.01,2013-01-08 03:58:00,
2013-01-07 22:00:00,25.3,22.5,30.23,SE,135,2.0,6.0,89,0.00,,---,0.00,VWS V14.01,2013-01-08 04:00:00,
2013-01-07 22:03:00,25.3,22.5,30.22,SW,223,1.0,3.0,89,0.00,,---,0.00,VWS V14.01,2013-01-08 04:03:00,
2013-01-07 22:08:00,25.4,22.6,30.23,SW,225,1.0,5.0,89,0.00,,---,0.00,VWS V14.01,2013-01-08 04:08:00,
2013-01-07 22:13:00,25.5,22.7,30.23,WSW,242,1.0,7.0,89,0.00,,---,0.00,VWS V14.01,2013-01-08 04:13:00,
2013-01-07 22:18:00,25.6,22.5,30.23,South,188,3.0,7.0,88,0.00,,---,0.00,VWS V14.01,2013-01-08 04:18:00,
2013-01-07 22:23:00,25.6,22.5,30.23,South,180,2.0,7.0,88,0.00,,---,0.00,VWS V14.01,2013-01-08 04:23:00,
2013-01-07 22:28:00,25.6,22.5,30.23,SSW,200,3.0,4.0,88,0.00,,---,0.00,VWS V14.01,2013-01-08 04:28:00,
2013-01-07 22:30:00,25.6,22.5,30.23,SSW,212,4.0,7.0,88,0.00,,---,0.00,VWS V14.01,2013-01-08 04:30:00,
2013-01-07 22:33:00,25.6,22.5,30.23,WSW,242,1.0,4.0,88,0.00,,---,0.00,VWS V14.01,2013-01-08 04:33:00,
2013-01-07 22:38:00,25.5,22.5,30.23,SSW,204,1.0,7.0,88,0.00,,---,0.00,VWS V14.01,2013-01-08 04:38:00,
2013-01-07 22:43:00,25.5,22.5,30.22,South,183,2.0,7.0,88,0.00,,---,0.00,VWS V14.01,2013-01-08 04:43:00,
2013-01-07 22:48:00,25.5,22.5,30.23,SW,226,1.0,7.0,88,0.00,,---,0.00,VWS V14.01,2013-01-08 04:48:00,
2013-01-07 22:53:00,25.4,22.4,30.22,SW,219,3.0,7.0,88,0.00,,---,0.00,VWS V14.01,2013-01-08 04:53:00,
2013-01-07 22:58:00,25.6,22.5,30.23,SW,236,2.0,7.0,88,0.00,,---,0.00,VWS V14.01,2013-01-08 04:58:00,
2013-01-07 23:00:00,25.5,22.5,30.23,WSW,238,3.0,3.0,88,0.00,,---,0.00,VWS V14.01,2013-01-08 05:00:00,
2013-01-07 23:01:00,25.6,22.5,30.23,South,188,1.0,3.0,88,0.00,,---,0.00,VWS V14.01,2013-01-08 05:01:00,
2013-01-07 23:03:00,25.6,22.5,30.22,SW,219,1.0,9.0,88,0.00,,---,0.00,VWS V14.01,2013-01-08 05:03:00,
2013-01-07 23:08:00,25.5,22.5,30.23,SSE,163,1.0,9.0,88,0.00,,---,0.00,VWS V14.01,2013-01-08 05:08:00,
2013-01-07 23:13:00,25.4,22.4,30.23,South,188,1.0,9.0,88,0.00,,---,0.00,VWS V14.01,2013-01-08 05:13:00,
2013-01-07 23:18:00,25.3,22.2,30.23,West,273,1.0,9.0,88,0.00,,---,0.00,VWS V14.01,2013-01-08 05:18:00,
2013-01-07 23:23:00,25.4,22.6,30.23,SSW,210,2.0,9.0,89,0.00,,---,0.00,VWS V14.01,2013-01-08 05:23:00,
2013-01-07 23:28:00,25.6,22.5,30.23,South,172,2.0,3.0,88,0.00,,---,0.00,VWS V14.01,2013-01-08 05:28:00,
2013-01-07 23:30:00,25.6,22.5,30.23,South,191,3.0,9.0,88,0.00,,---,0.00,VWS V14.01,2013-01-08 05:30:00,
2013-01-07 23:33:00,25.8,22.7,30.23,South,172,0.0,6.0,88,0.00,,---,0.00,VWS V14.01,2013-01-08 05:33:00,
2013-01-07 23:38:00,25.6,22.5,30.23,South,180,1.0,6.0,88,0.00,,---,0.00,VWS V14.01,2013-01-08 05:38:00,
2013-01-07 23:43:00,25.8,22.7,30.23,SSW,193,0.0,7.0,88,0.00,,---,0.00,VWS V14.01,2013-01-08 05:43:00,
2013-01-07 23:48:00,25.9,22.8,30.22,SSW,207,2.0,7.0,88,0.00,,---,0.00,VWS V14.01,2013-01-08 05:48:00,
2013-01-07 23:53:00,26.0,22.9,30.22,SSW,213,0.0,7.0,88,0.00,,---,0.00,VWS V14.01,2013-01-08 05:53:00,
2013-01-07 23:58:00,26.0,22.7,30.22,SSE,165,2.0,7.0,87,0.00,,---,0.00,VWS V14.01,2013-01-08 05:58:00,